User: anonymous   Login
Location: Strawberry
(45.6646°N, 111.9596°W)
Time: 11:28:44
(UTC+00:00)
Language:

A-11 Canister half - Orbit

View from above orbital plane
View from above orbital plane
View from above satellite
View from above satellite

Ground track
Ground track

The orbit data is extracted from the following two-line orbital elements,

1 00051U 60009C   22277.69780682 -.00000023  00000-0  60761-3 0  9996
2 00051  47.2114 271.0019 0105700 138.9117 221.9690 12.18282783766404
Epoch (UTC): 04 October 2022 16:44:50
Eccentricity: 0.0105700
inclination: 47.2114°
perigee height: 1515 km
apogee height: 1684 km
right ascension of ascending node: 271.0019°
argument of perigee: 138.9117°
revolutions per day: 12.18282783
mean anomaly at epoch: 221.9690°
orbit number at epoch: 76640

The dashed part of the orbit path shows where the satellite is in the earth's shadow,  

DLR